Location: ?ejeti?ky
(50.4060°N, 14.9016°E)
Time: 03:29:55
(UTC+00:00)

Cosmos 1842 Rocket - Pass Details

Date: 07 June 2020
Orbit: 605 x 634 km, 82.5° (Epoch: 04 July)

Event Time Altitude Azimuth Distance (km) Brightness Sun altitude
Rises 00:35:28 0° 350° (N) 2,940 8.1 -13.8°
Reaches altitude 10° 00:37:43 10° 351° (N) 2,024 7.1 -13.6°
Maximum altitude 00:42:14 83° 80° (E) 640 3.6 -13.4°
Enters shadow 00:46:05 14° 168° (SSE) 1,761 5.4 -13.1°
